Location: San Antonio de Areco
(34.2500°S, 59.4670°W)
Time: 10:23:51
(UTC-03:00)

ISS - Visible Passes

Search period start: 25 October 2014 00:00
Search period end: 04 November 2014 00:00
Orbit: 412 x 416 km, 51.6° (Epoch: 25 October)

Date Brightness Start Highest point End Pass type
(mag) Time Alt. Az. Time Alt. Az. Time Alt. Az.
29 Oct -0.2 05:03:32 10° S 05:05:23 14° SSE 05:07:13 10° ESE visible
31 Oct -1.2 05:00:33 10° SSW 05:03:35 30° SE 05:06:36 10° E visible
01 Nov -0.4 04:11:32 10° SSW 04:14:00 19° SSE 04:16:27 10° E visible
01 Nov -1.3 20:50:17 10° NNW 20:51:16 17° N 20:51:16 17° N visible
02 Nov 0.1 03:22:47 10° S 03:24:18 12° SSE 03:25:48 10° SE visible
02 Nov -3.3 04:58:01 10° SW 05:01:24 89° NW 05:04:45 10° NE visible
02 Nov -1.7 20:01:41 10° N 20:03:59 17° NE 20:06:18 10° E visible
02 Nov -1.7 21:37:18 10° WNW 21:40:26 36° SW 21:40:34 35° SSW visible
03 Nov -2.1 04:08:36 10° SW 04:11:52 45° SE 04:15:06 10° ENE visible
03 Nov -3.0 20:47:30 10° NW 20:50:50 69° SW 20:54:13 10° SE visible
03 Nov 0.3 22:27:12 10° SW 22:28:03 11° SSW 22:28:53 10° S visible
